Regional Weather Roundup
Issued by NWS

Home | Current Version | Previous Version | Text Only | Print | Product List | Glossary Off
Versions: 1 2 3 4 5 6 7 8 9 10 11 12 13 14 15 16 17 18 19 20 21 22 23 24 25 26 27 28 29 30 31 32 33 34 35 36 37 38 39 40 41 42 43 44 45 46 47 48 49 50

000
ASUS43 KLSX 101007
RWRMO

WEATHER SUMMARY FOR MISSOURI
NATIONAL WEATHER SERVICE SPRINGFIELD MO
400 AM CST SAT DEC 10 2016

NOTE: "FAIR" INDICATES FEW OR NO CLOUDS BELOW 12,000 FEET WITH NO
       SIGNIFICANT WEATHER AND/OR OBSTRUCTIONS TO VISIBILITY.
       CURRENT SKY AND/OR WEATHER CONDITIONS ARE NOT AVAILABLE FOR
       CHILLICOTHE AND FARMINGTON.

MOZ001>031-035>038-043-044-053-054-101100-
...NORTHERN AND WESTERN MISSOURI...

CITY           SKY/WX    TMP DP  RH WIND       PRES   REMARKS
KANSAS CTY INT CLOUDY    25  12  58 SE7       30.47F WCI  17
KANSAS C DTWN  CLOUDY    27  13  55 E6        30.48F WCI  20
LEE`S SUMMIT   CLOUDY    25  14  63 CALM      30.49S
ST JOSEPH      CLOUDY    26  15  63 SE5       30.48F WCI  20
CHILLICOTHE      N/A     25  11  55 SE3       30.52F
KIRKSVILLE     CLOUDY    24  16  71 SE3       30.52F

$$
MOZ066>068-077>081-088>096-101>105-101100-
...SOUTHWEST MISSOURI...

CITY           SKY/WX    TMP DP  RH WIND       PRES   REMARKS
SPRINGFIELD    MOCLDY    24  15  68 SE7       30.47F WCI  16
JOPLIN         CLOUDY    32  19  58 S5        30.49F WCI  27
BRANSON        CLOUDY    28  16  59 CALM      30.50S

$$
MOZ032>034-039>042-045>050-055>058-069>072-101100-
...CENTRAL MISSOURI...

CITY           SKY/WX    TMP DP  RH WIND       PRES   REMARKS
COLUMBIA       CLOUDY    25  12  58 SE7       30.52F WCI  17
JEFFERSON CITY CLOUDY    26  13  57 SE5       30.55F WCI  20
ROLLA          CLOUDY    23  14  68 E8        30.50F WCI  14
SEDALIA        CLOUDY    27  12  53 SE6       30.51F WCI  20
WHITEMAN AFB   CLOUDY    26  14  60 CALM      30.49F
WARRENSBURG    CLOUDY    27  16  63 E3        30.50S
OSAGE BEACH    CLOUDY    26  14  60 E3        30.52F

$$
MOZ051-052-059>065-101100-
...EAST CENTRAL MISSOURI...

CITY           SKY/WX    TMP DP  RH WIND       PRES   REMARKS
ST LOUIS INTL  CLOUDY    27  14  58 CALM      30.57F
SPIRIT OF STL  CLOUDY    25  16  68 CALM      30.57F
ST CHARLES     CLOUDY    25  19  78 CALM      30.57F

$$
MOZ072>076-082>087-097>100-106>115-101100-
...SOUTH CENTRAL AND SOUTHEAST MISSOURI...

CITY           SKY/WX    TMP DP  RH WIND       PRES   REMARKS
CAPE GIRARDEAU CLEAR     19  16  88 CALM      30.59F
FARMINGTON     MOCLDY    16  14  92 CALM      30.55S
POPLAR BLUFF   CLEAR     20  18  92 N3        30.59S
WEST PLAINS    CLOUDY    19  12  74 CALM      30.52S

$$



USA.gov is the U.S. government's official web portal to all federal, state and local government web resources and services.